Dansville, NY

6:28 PM EDT on August 20, 2017 (GMT -0400)
Dansville Municipal

Weather History for KDSV - February, 2013

Change the Weather History Date:

Saturday, February 23, 2013

  Actual Average Record
Temperature  
Mean Temperature 36 °F -  
Max Temperature 41 °F 43 °F 69 °F (2017)
Min Temperature 32 °F 23 °F -11 °F (2015)
Degree Days  
Heating Degree Days 28    
Moisture  
Dew Point 28 °F    
Average Humidity 76    
Maximum Humidity 85    
Minimum Humidity 67    
Precipitation  
Precipitation 0.00 in - - ()
Sea Level Pressure  
Sea Level Pressure 29.95 in    
Wind  
Wind Speed 8 mph (SE)    
Max Wind Speed 13 mph    
Max Gust Speed 16 mph    
Visibility 9 miles    
Events Snow    
Averages and records for this station are not official NWS values.
T = Trace of Precipitation, MM = Missing Value Source: NWS Daily Summary

Daily Weather History Graph

Daily Weather History Graph

Search for Another Location

Airport or City:

Trip Planner

Search our weather history database for the weather conditions in past years. The results will help you decide how hot, cold, wet, or windy it might be!

Date:

Astronomy

Feb. 23, 2013 Rise Set
Actual Time 6:55 AM EST 5:53 PM EST
Civil Twilight 6:27 AM EST 6:21 PM EST
Nautical Twilight 5:54 AM EST 6:54 PM EST
Astronomical Twilight 5:21 AM EST 7:27 PM EST
Moon 4:00 PM EST (2/23) 5:18 AM EST (2/23)
Length of Visible Light 11h 54m
Length of Day
10h 57m
Waxing Gibbous, 95% of the Moon is Illuminated
Feb 23
Waxing Gibbous
Feb 25
Full
Mar 4
Last Quarter
Mar 11
New
Mar 19
First Quarter

Hourly Weather History & Observations

Time (EST) Temp. Windchill Dew Point Humidity Pressure Visibility Wind Dir Wind Speed Gust Speed Precip Events Conditions
12:54 AM 34.0 °F 25.0 °F 24.1 °F 67% 30.07 in 10.0 mi ESE 12.7 mph - N/A   Overcast
1:54 AM 33.1 °F 24.9 °F 25.0 °F 72% 30.06 in 10.0 mi SE 10.4 mph 16.1 mph 0.00 in   Overcast
2:54 AM 33.1 °F 25.5 °F 25.0 °F 72% 30.05 in 10.0 mi SSE 9.2 mph - N/A   Overcast
3:47 AM 33.8 °F 27.7 °F 24.8 °F 70% 29.99 in 10.0 mi SE 6.9 mph - N/A   Overcast
3:54 AM 34.0 °F 25.5 °F 25.0 °F 70% 30.04 in 10.0 mi SE 11.5 mph - N/A   Overcast
4:54 AM 34.0 °F 26.0 °F 25.0 °F 70% 30.01 in 10.0 mi SE 10.4 mph - N/A   Overcast
5:54 AM 34.0 °F 26.6 °F 26.1 °F 73% 30.01 in 10.0 mi SE 9.2 mph - N/A   Overcast
7:54 AM 34.0 °F 26.6 °F 27.0 °F 75% 30.01 in 10.0 mi SE 9.2 mph - N/A   Overcast
8:54 AM 35.1 °F 30.1 °F 28.0 °F 76% 30.00 in 10.0 mi SE 5.8 mph - N/A   Overcast
9:45 AM 33.8 °F 29.6 °F 28.4 °F 81% 29.95 in 2.0 mi SE 4.6 mph - 0.00 in Snow Light Snow
9:54 AM 34.0 °F 29.8 °F 28.9 °F 82% 29.99 in 4.0 mi ESE 4.6 mph - 0.00 in Snow Light Snow
10:54 AM 37.0 °F 31.6 °F 30.9 °F 79% 29.97 in 9.0 mi SE 6.9 mph - 0.00 in   Overcast
11:54 AM 37.0 °F 31.0 °F 30.0 °F 76% 29.97 in 10.0 mi South 8.1 mph - N/A   Overcast
12:54 PM 37.9 °F 32.1 °F 30.9 °F 76% 29.94 in 10.0 mi SSE 8.1 mph - N/A   Overcast
1:54 PM 39.0 °F 34.0 °F 30.9 °F 73% 29.92 in 10.0 mi SSE 6.9 mph - N/A   Overcast
2:54 PM 39.0 °F 34.0 °F 32.0 °F 76% 29.91 in 10.0 mi South 6.9 mph - N/A   Overcast
3:54 PM 39.9 °F 37.8 °F 32.0 °F 73% 29.89 in 10.0 mi SE 3.5 mph - N/A   Overcast
4:54 PM 41.0 °F - 32.0 °F 70% 29.90 in 10.0 mi Calm Calm - N/A   Overcast
5:24 PM 39.2 °F - 32.0 °F 75% 29.86 in 9.0 mi Calm Calm - N/A   Overcast
5:54 PM 39.9 °F - 30.9 °F 70% 29.89 in 10.0 mi Calm Calm - N/A   Overcast
6:54 PM 35.1 °F 30.1 °F 30.0 °F 82% 29.91 in 10.0 mi NW 5.8 mph - N/A   Overcast
7:24 PM 35.6 °F 29.2 °F 30.2 °F 81% 29.89 in 10.0 mi NW 8.1 mph - N/A   Overcast
7:54 PM 34.0 °F 25.5 °F 28.9 °F 82% 29.93 in 9.0 mi NW 11.5 mph - N/A   Overcast
8:40 PM 33.8 °F 27.7 °F 28.4 °F 81% 29.89 in 8.0 mi NW 6.9 mph - N/A   Overcast
8:54 PM 33.1 °F 26.1 °F 28.9 °F 85% 29.94 in 8.0 mi NNW 8.1 mph - N/A   Overcast
9:54 PM 33.1 °F 24.9 °F 28.0 °F 82% 29.94 in 8.0 mi NNW 10.4 mph - N/A   Overcast
10:54 PM 32.0 °F 26.4 °F 27.0 °F 82% 29.92 in 10.0 mi NNW 5.8 mph - N/A   Overcast
11:07 PM 32.0 °F 27.5 °F 26.6 °F 80% 29.87 in 10.0 mi North 4.6 mph - N/A   Overcast
11:54 PM 32.0 °F 28.7 °F 25.0 °F 75% 29.92 in 10.0 mi North 3.5 mph - N/A   Overcast